WetterOnline ( https://www.wetteronline.ch )

Wetter aktuell Leisnig

Aktuelles Wetter: Oschatz (152m)

6-stündlich | Neueste Meldungen
Ortszeit Temperatur Wetter
Do, 22.08. 2:00 10.3° C wolkig
Mi, 21.08. 20:00 20.7° C wolkenlos
Mi, 21.08. 14:00 21.5° C fast wolkenlos
Mi, 21.08. 8:00 14.3° C wolkenlos
Mi, 21.08. 2:00 14.6° C leichter Regen
Di, 20.08. 20:00 20.1° C leichter Regen
Di, 20.08. 14:00 24.6° C wolkig
Di, 20.08. 8:00 15.1° C bedeckt
Ortszeit Temperatur Wetter
Do, 22.08. 7:00 9.9° C bewölkt
Do, 22.08. 6:50 9.9° C bewölkt
Do, 22.08. 6:40 9.7° C bedeckt
Do, 22.08. 6:30 9.2° C bedeckt
Do, 22.08. 6:20 9.2° C bedeckt
Do, 22.08. 6:10 9.2° C bedeckt
Do, 22.08. 6:00 9.5° C bedeckt
Do, 22.08. 5:30 8.8° C wolkig
Do, 22.08. 5:00 8.9° C leicht bewölkt
Do, 22.08. 4:30 9.5° C leicht bewölkt
Do, 22.08. 4:00 9.6° C wolkig
Ortszeit Relative Feuchte Sichtweite
Do, 22.08. 2:00 92% 40 km
Mi, 21.08. 20:00 46% 50 km
Mi, 21.08. 14:00 47% 60 km
Mi, 21.08. 8:00 88% 28 km
Mi, 21.08. 2:00 96% 19 km
Di, 20.08. 20:00 56% 30 km
Di, 20.08. 14:00 35% 60 km
Di, 20.08. 8:00 78% 50 km
Ortszeit Relative Feuchte Sichtweite
Do, 22.08. 7:00 90% 29 km
Do, 22.08. 6:50 90% -
Do, 22.08. 6:40 92% -
Do, 22.08. 6:30 94% 29 km
Do, 22.08. 6:20 94% -
Do, 22.08. 6:10 94% -
Do, 22.08. 6:00 93% 35 km
Do, 22.08. 5:30 94% 35 km
Do, 22.08. 5:00 94% 29 km
Do, 22.08. 4:30 93% 35 km
Do, 22.08. 4:00 92% 35 km
Ortszeit Niederschlagsmenge Niederschlagsart
Do, 22.08. 2:00 0.0 l/m2 in 6 Std. -
Mi, 21.08. 20:00 0.0 l/m2 in 12 Std. -
Mi, 21.08. 14:00 0.0 l/m2 in 6 Std. -
Mi, 21.08. 8:00 4 l/m2 in 12 Std. Regen
Mi, 21.08. 2:00 3 l/m2 in 6 Std. Regen
Di, 20.08. 20:00 0.1 l/m2 in 12 Std. Regen
Di, 20.08. 14:00 0.0 l/m2 in 6 Std. -
Di, 20.08. 8:00 0.0 l/m2 in 12 Std. -
Ortszeit Niederschlagsmenge Niederschlagsart
Do, 22.08. 7:00 0.0 l/m2 in 1 Std. -
Do, 22.08. 6:50 keine Meldung -
Do, 22.08. 6:40 keine Meldung -
Do, 22.08. 6:30 0.0 l/m2 in 1 Std. -
Do, 22.08. 6:20 keine Meldung -
Do, 22.08. 6:10 keine Meldung -
Do, 22.08. 6:00 0.0 l/m2 in 1 Std. -
Do, 22.08. 5:30 0.0 l/m2 in 1 Std. -
Do, 22.08. 5:00 0.0 l/m2 in 1 Std. -
Do, 22.08. 4:30 0.0 l/m2 in 1 Std. -
Do, 22.08. 4:00 0.0 l/m2 in 1 Std. -
Ortszeit Stärke Spitze Richtung
km/h Bft. km/h Grad Sektor
Do, 22.08. 2:00 4 1 7 210° SW
Mi, 21.08. 20:00 4 1 25 210° SW
Mi, 21.08. 14:00 11 2 25 270° W
Mi, 21.08. 8:00 7 2 22 280° W
Mi, 21.08. 2:00 7 2 29 220° SW
Di, 20.08. 20:00 22 4 29 290° W
Di, 20.08. 14:00 9 2 24 310° NW
Di, 20.08. 8:00 0 0 11 - -
Ortszeit Stärke Spitze Richtung
km/h Bft. km/h Grad Sektor
Do, 22.08. 7:00 4 1 7 170° S
Do, 22.08. 6:50 4 1 - 170° S
Do, 22.08. 6:40 4 1 - 170° S
Do, 22.08. 6:30 4 1 7 200° S
Do, 22.08. 6:20 4 1 - 200° S
Do, 22.08. 6:10 6 1 - 200° S
Do, 22.08. 6:00 4 1 7 170° S
Do, 22.08. 5:30 4 1 7 210° SW
Do, 22.08. 5:00 6 1 7 210° SW
Do, 22.08. 4:30 0 0 4 - -
Do, 22.08. 4:00 2 1 6 320° NW
Ortszeit Untergrenze Bedeckung Gattung
total tief tief mittel hoch
Do, 22.08. 2:00 8700 m 8/8 0/8 - - -
Mi, 21.08. 20:00 - 0/8 0/8 - - -
Mi, 21.08. 14:00 1380 m 1/8 1/8 - - -
Mi, 21.08. 8:00 - 0/8 0/8 - - -
Mi, 21.08. 2:00 1800 m 7/8 7/8 - - -
Di, 20.08. 20:00 1800 m 8/8 8/8 - - -
Di, 20.08. 14:00 1800 m 8/8 2/8 - - -
Di, 20.08. 8:00 6300 m 8/8 8/8 - - -
Ortszeit Bedeckungsgrad in Achtel und Wolkenuntergrenze
Do, 22.08. 7:00 6(6900m) 7(7500m)
Do, 22.08. 6:50 6(6900m) 7(7500m)
Do, 22.08. 6:40 8(6600m) 8(8100m)
Do, 22.08. 6:30 8(6600m) 8(8100m)
Do, 22.08. 6:20 8(6600m) 8(8100m)
Do, 22.08. 6:10 8(6600m)
Do, 22.08. 6:00 8(6600m) 8(9000m)
Do, 22.08. 5:30 7(7500m) 8(8100m) 8(9000m)
Do, 22.08. 5:00 4(8100m) 5(9000m) 5(9000m)
Do, 22.08. 4:30 4(7800m)
Do, 22.08. 4:00 7(7500m) 8(8100m) 8(10500m)
Ortszeit Luftdruck NN (hPa) Tendenz (hPa in 3 Std.)
Do, 22.08. 2:00 1029 + 0,1
Mi, 21.08. 20:00 1028 - 0,1
Mi, 21.08. 14:00 1028 - 0,4
Mi, 21.08. 8:00 1028 + 1,6
Mi, 21.08. 2:00 1026 + 1,1
Di, 20.08. 20:00 1023 + 1,4
Di, 20.08. 14:00 1021 - 0,2
Di, 20.08. 8:00 1021 + 0,9
Ortszeit Luftdruck NN (hPa) Tendenz (hPa in 3 Std.)
Do, 22.08. 7:00 1029 0,0
Do, 22.08. 6:50 1029 keine Meldung
Do, 22.08. 6:40 1029 keine Meldung
Do, 22.08. 6:30 1029 0,0
Do, 22.08. 6:20 1029 keine Meldung
Do, 22.08. 6:10 1029 keine Meldung
Do, 22.08. 6:00 1029 + 0,1
Do, 22.08. 5:30 1029 - 0,3
Do, 22.08. 5:00 1029 - 0,4
Do, 22.08. 4:30 1029 - 0,2
Do, 22.08. 4:00 1029 - 0,4
Ortszeit Schneehöhe (cm)
Do, 22.08. 2:00 -
Mi, 21.08. 20:00 -
Mi, 21.08. 14:00 -
Mi, 21.08. 8:00 -
Mi, 21.08. 2:00 -
Di, 20.08. 20:00 -
Di, 20.08. 14:00 -
Di, 20.08. 8:00 -
Ortszeit Schneehöhe (cm)
Do, 22.08. 7:00 -
Do, 22.08. 6:50 -
Do, 22.08. 6:40 -
Do, 22.08. 6:30 -
Do, 22.08. 6:20 -
Do, 22.08. 6:10 -
Do, 22.08. 6:00 -
Do, 22.08. 5:30 -
Do, 22.08. 5:00 -
Do, 22.08. 4:30 -
Do, 22.08. 4:00 -
Link zu dieser Seite / Seite empfehlen

Das Wetter in ...